Temperature
11 11 12 12 12 13 13 13 13 14 14 14 14 14 14 14 14 14 14 14 15 15 15 15 15 15 15 15 15 15 15 15 15 15 15 15 15 15 15 14 14 14 14
11 11 11 12 12 12 13 13 13 13 13 13 13 14 14 14 14 14 14 14 14 14 15 15 15 15 15 15 15 15 15 15 15 15 14 14 14 14 14 14 14 14 14
11 11 11 11 12 12 12 12 12 13 13 13 13 13 13 14 14 14 14 14 14 14 14 14 14 14 14 14 15 15 15 15 14 14 14 14 14 14 14 14 14 14 14
11 11 11 11 11 12 12 12 12 12 13 13 13 13 13 13 13 13 14 14 14 14 14 14 14 14 14 14 14 14 14 14 14 14 13 13 13 13 14 14 14 14 14
10 10 11 11 11 11 12 12 12 12 12 12 13 13 13 13 13 13 13 13 14 14 14 14 14 14 14 14 14 14 14 14 14 14 13 13 13 13 13 13 13 13 13
10 10 11 11 11 11 11 11 12 12 12 12 12 12 12 12 13 13 13 13 13 13 13 14 14 14 14 14 14 14 14 14 13 13 13 13 13 13 13 13 13 13 13
10 10 10 10 11 11 11 11 11 11 11 11 11 12 12 12 12 12 12 13 13 13 13 13 13 13 13 14 13 13 13 13 13 13 13 12 13 13 13 13 13 13 13
9 10 10 10 10 10 10 11 11 11 11 11 11 11 11 12 12 12 12 12 12 12 12 13 13 13 13 13 13 13 13 13 13 12 12 12 12 13 13 13 13 13 13
9 9 9 9 10 10 10 10 10 10 10 10 11 11 11 11 11 12 12 12 12 12 12 12 12 13 13 13 13 13 13 13 12 12 12 12 12 12 12 12 12 12 12
9 9 9 9 9 9 10 10 10 10 10 10 10 10 10 11 11 11 11 11 11 12 12 12 12 12 12 12 12 12 12 12 12 12 12 12 12 12 12 12 12 12 12
8 8 8 8 9 9 9 9 9 9 9 9 10 10 10 10 10 10 11 11 11 11 11 12 12 12 12 12 12 12 12 12 11 12 12 12 12 12 11 11 11 12 12
8 8 8 8 8 8 8 9 9 9 9 9 9 9 9 9 10 10 10 11 11 11 11 11 11 11 11 11 11 11 11 11 11 11 11 11 11 11 11 11 11 11 11
7 7 7 8 8 8 8 8 8 8 8 8 9 9 9 9 9 9 10 10 10 10 10 11 11 11 11 11 11 11 11 11 11 11 11 11 11 11 11 11 11 11 11
7 7 7 7 7 7 7 7 7 8 8 8 8 8 8 8 8 9 9 9 9 10 10 10 10 10 10 10 10 10 10 10 10 10 11 11 11 11 11 11 11 11 11
6 6 6 6 6 7 7 7 7 7 7 7 7 7 7 8 8 8 8 9 9 9 9 10 10 10 10 10 10 10 10 10 10 10 10 10 10 10 10 10 10 10 10
6 6 6 6 6 6 6 6 6 6 7 7 7 7 7 7 7 8 8 8 8 8 9 9 9 9 9 9 9 10 10 10 10 10 10 10 10 10 10 10 10 10 10
6 6 6 6 5 5 5 6 6 6 6 6 6 6 6 6 7 7 7 7 8 8 8 8 8 9 9 9 9 9 9 9 9 9 9 9 10 10 10 10 10 10 10
5 5 5 5 5 5 5 5 5 5 5 5 5 6 6 6 6 6 6 7 7 7 7 8 8 8 8 8 9 9 9 9 9 9 9 9 9 9 9 9 10 9 9
4 4 5 4 4 4 4 4 4 4 5 5 5 5 5 5 5 6 6 6 6 6 7 7 7 7 8 8 8 8 8 8 9 9 9 9 9 9 9 9 9 9 9
4 4 4 4 4 4 3 4 3 4 4 4 4 4 4 5 5 5 5 5 6 6 6 6 7 7 7 7 8 8 8 8 8 8 8 8 8 8 8 8 9 8 9
3 3 3 3 3 3 3 3 3 3 3 3 3 4 4 4 4 4 4 5 5 5 5 6 6 6 6 7 7 7 7 7 8 8 8 8 8 8 8 8 8 8 8
3 2 3 3 3 2 2 2 2 2 3 3 3 3 3 3 3 4 4 4 4 4 5 5 5 6 6 6 6 6 6 6 7 7 7 7 8 8 8 8 8 8 8
2 2 2 2 2 2 2 2 2 2 2 2 2 2 2 2 3 3 3 3 4 4 4 4 5 5 5 5 5 5 6 6 6 6 7 7 7 7 7 7 7 7 7
1 1 1 1 1 1 1 1 1 1 1 2 2 2 2 2 2 2 2 3 3 3 3 4 4 4 4 5 5 5 5 5 5 5 6 6 6 6 6 7 7 7 7
1 1 1 1 1 1 1 1 1 1 1 1 1 1 1 1 2 2 2 2 2 3 3 3 3 4 4 4 4 4 5 5 5 5 5 5 5 6 6 6 6 6 6
0 0 0 0 0 0 0 0 0 0 0 0 0 0 1 1 1 1 1 1 2 2 2 3 3 3 3 3 4 4 4 4 4 4 4 5 5 5 5 5 6 6 6
Wind_Speed
2 2 4 4 6 8 9 10 10 11 10 11 11 11 10 10 10 9 8 8 8 8 9 10 11 11 12 12 13 14 14 14 14 15 15 15 15 15 15 14 13 15 16
2 2 3 4 6 8 9 10 11 11 11 11 11 11 11 10 10 9 8 8 8 8 8 9 10 11 11 12 13 14 14 14 14 14 14 15 15 15 14 13 13 14 15
3 3 4 5 7 8 9 10 10 11 11 11 10 10 11 11 11 9 9 8 8 8 8 9 9 10 11 12 13 13 14 13 13 11 10 12 13 14 14 14 15 15 15
3 4 5 6 8 9 9 9 10 11 11 11 11 10 10 10 11 11 10 9 8 8 8 8 9 9 10 11 12 13 13 12 11 8 8 10 12 13 13 13 14 14 15
4 4 5 6 8 9 9 9 9 10 10 10 11 11 10 10 10 11 11 10 9 8 7 8 8 8 10 11 12 12 12 11 9 8 9 9 11 12 13 13 13 14 14
4 4 5 6 7 8 8 8 9 9 9 10 10 10 10 10 10 9 10 10 10 8 7 8 8 8 9 10 11 11 11 10 8 8 8 9 10 11 12 12 12 13 13
4 4 5 5 6 7 8 8 8 8 9 9 9 9 9 9 9 9 8 9 9 9 7 7 7 8 9 10 11 11 10 8 7 8 8 8 10 11 11 12 12 12 12
3 4 5 6 6 7 8 8 8 8 8 8 8 8 8 8 8 8 8 8 8 8 7 7 6 7 8 10 10 10 9 7 7 8 8 8 9 10 11 11 11 12 12
3 4 4 5 5 6 7 7 8 8 8 8 8 8 8 7 7 7 7 7 7 7 7 7 7 7 8 9 10 9 8 5 6 7 7 7 8 9 10 10 10 10 11
3 3 4 5 5 4 5 7 7 7 7 7 7 8 7 7 6 6 6 6 6 6 7 6 6 6 7 8 8 9 8 6 6 6 6 7 7 8 9 9 9 9 10
2 2 3 4 4 4 4 5 5 6 6 6 6 6 5 4 4 5 6 6 6 5 5 6 6 5 6 7 7 7 7 6 6 5 5 6 6 7 8 9 8 9 9
2 1 2 2 2 3 3 3 3 3 4 3 3 3 3 3 3 4 5 6 5 5 5 4 4 4 4 5 6 6 5 5 5 4 5 6 5 6 7 8 8 9 9
3 1 1 1 2 2 2 2 2 2 2 2 2 3 2 2 2 2 2 3 3 2 3 2 2 3 3 4 4 5 4 4 4 4 5 5 5 6 7 8 8 8 9
3 2 1 1 1 1 2 2 2 2 2 2 2 2 1 1 1 2 2 2 1 1 1 1 1 2 2 4 5 5 4 3 3 3 4 5 5 5 6 7 7 8 9
3 2 1 0 0 1 1 1 1 1 2 1 1 1 1 0 0 1 1 1 1 0 0 0 1 2 2 3 4 4 4 4 4 4 4 6 5 4 6 7 7 8 8
4 3 2 1 0 1 0 1 1 1 1 1 1 1 1 1 1 0 1 1 1 0 1 1 1 1 2 2 3 4 4 4 3 3 4 5 5 4 4 6 7 7 8
4 3 2 1 0 1 0 0 1 1 1 1 1 2 2 2 1 1 1 1 1 1 1 1 1 1 2 2 3 3 3 3 3 3 4 4 4 4 4 5 6 6 7
3 3 2 1 1 1 1 1 1 1 1 1 2 2 2 2 2 2 1 1 1 1 1 2 1 2 2 2 2 2 2 3 4 4 4 4 4 4 4 5 5 5 6
3 3 2 2 1 1 1 1 1 1 1 1 2 2 2 3 3 2 2 2 2 1 1 2 2 2 2 2 2 2 2 2 3 3 4 4 3 4 4 5 5 5 5
3 2 2 2 1 1 1 1 1 1 1 2 2 2 3 2 3 3 2 2 2 2 2 2 2 2 2 2 2 2 1 2 3 3 4 3 3 4 4 5 5 5 4
2 2 2 2 2 1 1 2 2 2 2 2 2 2 3 3 3 3 2 3 3 3 3 3 2 3 3 2 2 2 1 1 2 3 3 3 3 4 4 4 4 5 4
3 3 3 3 2 2 2 2 2 2 3 3 3 3 3 3 3 3 4 3 3 3 4 3 3 3 2 3 3 3 3 3 2 3 3 3 3 4 3 4 4 4 4
3 3 3 3 3 3 2 2 2 2 2 3 3 3 4 4 4 4 4 4 4 4 4 4 4 4 4 3 3 3 3 3 2 3 3 3 4 4 3 4 4 4 4
3 3 3 4 3 3 3 3 4 4 4 5 4 4 4 5 5 5 5 5 5 4 5 5 4 4 5 4 3 2 2 1 2 2 3 4 4 4 4 4 4 5 5
3 3 3 3 4 4 4 4 5 5 4 4 4 5 4 4 5 5 5 5 6 5 6 5 5 5 5 5 4 3 3 2 2 3 3 4 3 4 4 5 4 5 5
3 3 3 3 3 4 4 5 5 6 5 5 6 5 5 4 4 5 6 5 6 6 6 6 6 6 6 6 5 4 4 4 4 3 4 5 4 3 4 4 4 4 5
Wind_Direction
79 18 1 22 51 54 55 59 62 63 63 60 61 61 63 63 65 70 79 86 94 99 100 101 103 102 100 100 99 98 97 94 91 90 91 90 90 90 89 90 93 89 87
85 42 25 40 58 60 58 58 61 60 61 61 60 60 58 59 61 62 70 79 86 93 100 103 105 105 102 102 102 100 97 96 95 93 95 93 90 91 89 83 79 90 89
84 59 64 56 63 66 63 61 62 61 62 59 57 58 57 57 58 60 63 70 80 84 91 98 104 106 105 104 104 102 100 99 97 99 106 101 96 92 92 89 88 91 91
91 74 66 65 63 66 65 61 62 61 59 59 57 56 55 55 56 57 58 60 69 78 88 94 101 107 108 107 106 105 104 102 100 108 104 99 100 95 94 93 93 93 92
93 82 76 68 65 63 65 65 65 60 57 56 55 53 53 52 54 56 54 53 57 69 86 97 99 106 109 109 109 108 108 108 109 108 100 100 100 99 97 96 95 94 93
93 85 84 73 69 66 64 66 67 63 58 55 52 51 50 49 49 52 51 52 53 61 81 94 100 107 109 113 114 113 113 117 124 108 104 104 104 104 101 100 99 98 97
95 79 89 78 74 71 66 64 65 65 61 57 52 50 50 48 46 46 48 51 52 59 73 92 99 108 114 116 116 115 114 119 120 112 108 106 105 108 106 104 102 102 100
97 83 84 81 76 71 66 62 63 62 59 55 51 47 46 48 45 43 45 48 52 58 65 82 97 106 115 119 117 116 115 123 119 115 112 108 106 111 110 107 104 104 102
92 85 75 72 76 74 70 64 59 60 59 54 50 45 43 43 41 44 44 46 52 60 63 75 87 103 112 119 121 121 120 122 122 117 116 112 111 117 116 113 111 109 108
86 79 75 67 63 63 72 68 61 58 60 55 49 42 38 40 41 43 42 46 49 60 64 72 84 95 112 117 123 128 133 144 128 123 119 114 114 123 123 120 118 116 112
96 72 67 63 63 58 60 69 68 63 61 59 54 46 37 36 37 37 39 42 51 58 64 70 86 95 113 122 124 132 145 145 134 122 116 111 123 127 127 127 125 121 116
163 107 65 60 60 61 56 61 68 67 59 55 54 43 30 24 26 31 38 40 48 62 67 71 90 119 133 138 136 144 149 150 135 125 113 117 129 133 131 132 133 127 122
181 161 84 52 59 62 55 47 40 49 51 40 42 34 28 26 21 25 30 34 45 69 74 83 113 134 137 138 143 148 146 143 134 129 120 121 130 134 134 134 136 133 130
185 187 151 62 65 67 59 53 43 32 38 33 22 22 18 27 11 11 8 360 5 53 66 97 108 134 135 146 148 145 145 138 131 126 116 118 125 138 142 144 143 139 137
191 191 190 217 88 67 48 34 33 23 22 8 2 337 328 6 343 354 351 349 337 316 161 110 139 145 137 142 149 149 150 150 141 138 123 113 116 127 142 148 147 142 140
198 193 190 202 119 110 47 9 6 3 2 348 341 318 288 277 266 278 305 317 318 272 237 219 199 172 166 143 152 156 159 154 152 148 142 130 119 119 133 146 146 145 143
201 198 196 203 186 197 239 247 305 308 315 325 325 308 285 260 248 241 236 242 278 270 245 214 201 182 174 164 163 164 159 159 154 158 156 157 150 133 130 141 142 144 145
199 199 201 205 235 239 254 257 270 287 292 315 310 300 290 263 247 238 226 229 250 250 247 213 204 209 200 189 179 175 173 170 167 164 162 163 165 162 151 140 138 141 143
203 199 198 203 226 255 266 253 252 261 280 295 298 295 306 277 244 237 222 224 228 229 230 220 211 208 205 203 190 186 184 184 174 167 167 166 171 172 169 155 148 148 152
201 201 208 209 228 255 250 242 256 262 280 279 284 292 288 292 255 232 218 217 223 220 225 221 214 203 204 200 194 186 186 191 182 176 176 174 176 181 180 177 170 163 161
196 207 219 222 231 240 248 241 249 253 265 272 271 276 280 283 278 234 220 214 223 225 227 220 212 195 193 190 186 178 177 180 183 184 179 179 178 183 182 184 181 180 181
205 218 230 232 231 237 249 254 253 256 263 267 267 267 268 269 272 249 220 218 222 224 222 221 211 201 197 199 193 182 194 194 201 199 189 196 193 186 184 184 185 189 193
222 226 235 240 243 245 244 246 247 251 264 264 264 265 264 261 260 252 235 222 221 222 223 223 218 208 198 204 206 204 205 205 189 193 197 200 201 200 198 194 193 193 193
239 237 240 239 243 244 234 228 229 237 246 255 255 257 260 253 251 250 236 227 219 223 228 225 221 218 204 203 206 221 242 193 193 188 191 198 207 209 208 203 202 200 198
242 242 244 245 247 249 247 237 239 242 248 252 249 246 250 246 244 245 237 232 224 222 226 224 227 218 212 211 206 207 205 210 219 213 206 195 204 214 213 209 204 203 202
246 249 252 251 258 259 253 246 244 245 245 246 246 242 244 244 239 239 234 230 229 226 226 225 225 221 218 217 212 211 204 200 205 210 215 207 208 214 212 209 208 207 204
Height
1530 1531 1531 1532 1533 1533 1533 1533 1533 1534 1534 1534 1534 1534 1535 1535 1535 1535 1536 1536 1536 1536 1536 1536 1537 1537 1537 1537 1537 1537 1538 1538 1538 1538 1538 1538 1539 1539 1539 1539 1539 1539 1539
1529 1530 1531 1532 1533 1533 1533 1533 1533 1533 1534 1534 1534 1534 1535 1535 1535 1536 1536 1536 1536 1537 1537 1537 1537 1538 1538 1538 1538 1539 1539 1539 1539 1540 1540 1540 1540 1541 1541 1541 1541 1541 1541
1529 1530 1530 1531 1532 1532 1533 1533 1533 1533 1534 1534 1534 1534 1535 1535 1535 1536 1536 1536 1537 1537 1537 1538 1538 1538 1539 1539 1539 1539 1540 1541 1541 1541 1542 1542 1542 1542 1542 1542 1543 1543 1543
1528 1529 1530 1531 1531 1532 1532 1533 1533 1533 1533 1534 1534 1534 1534 1535 1535 1535 1536 1536 1536 1537 1537 1538 1538 1538 1539 1540 1540 1540 1541 1541 1542 1542 1544 1544 1544 1544 1544 1544 1544 1544 1544
1528 1529 1529 1530 1531 1531 1532 1532 1532 1533 1533 1533 1533 1534 1534 1534 1535 1535 1535 1536 1536 1537 1537 1538 1538 1539 1539 1540 1540 1541 1541 1542 1543 1543 1544 1545 1545 1545 1545 1545 1545 1546 1546
1528 1529 1529 1530 1531 1531 1532 1532 1532 1532 1532 1532 1533 1533 1533 1534 1534 1535 1535 1536 1536 1536 1537 1538 1538 1539 1539 1540 1540 1541 1542 1543 1544 1544 1545 1546 1546 1546 1546 1546 1546 1547 1547
1528 1528 1529 1529 1530 1530 1531 1531 1531 1531 1531 1532 1532 1532 1533 1533 1534 1534 1535 1535 1536 1536 1537 1537 1538 1539 1539 1540 1541 1541 1542 1543 1544 1545 1545 1546 1546 1547 1547 1547 1548 1548 1548
1527 1528 1528 1529 1529 1530 1530 1530 1530 1530 1530 1530 1531 1531 1532 1532 1533 1533 1534 1534 1535 1535 1536 1537 1537 1538 1539 1540 1540 1541 1542 1543 1544 1545 1546 1546 1547 1547 1548 1548 1548 1549 1549
1526 1527 1527 1527 1528 1528 1528 1529 1529 1529 1529 1529 1529 1530 1530 1531 1531 1532 1533 1533 1534 1535 1535 1536 1537 1537 1538 1539 1540 1541 1542 1543 1544 1545 1546 1546 1547 1548 1548 1549 1549 1549 1550
1525 1525 1526 1526 1526 1526 1527 1527 1527 1527 1527 1528 1528 1528 1529 1529 1530 1531 1531 1532 1532 1533 1534 1535 1535 1536 1537 1538 1539 1540 1542 1543 1544 1545 1545 1546 1547 1548 1548 1549 1549 1550 1550
1523 1524 1524 1524 1524 1525 1525 1525 1525 1525 1526 1526 1527 1527 1527 1528 1528 1529 1529 1530 1531 1531 1532 1533 1534 1535 1536 1537 1539 1540 1541 1543 1544 1544 1545 1546 1547 1547 1548 1549 1549 1550 1550
1521 1522 1522 1522 1522 1523 1523 1523 1523 1523 1524 1524 1525 1525 1525 1526 1526 1527 1527 1528 1529 1530 1531 1532 1533 1534 1535 1536 1537 1539 1540 1542 1543 1543 1544 1545 1546 1547 1548 1548 1549 1550 1550
1519 1519 1520 1520 1520 1521 1521 1520 1521 1521 1522 1522 1523 1523 1523 1524 1524 1525 1525 1526 1527 1528 1529 1530 1531 1532 1534 1535 1536 1537 1538 1540 1541 1542 1543 1544 1545 1546 1547 1548 1549 1549 1550
1517 1517 1517 1518 1518 1518 1518 1518 1519 1519 1519 1520 1520 1520 1521 1521 1522 1522 1523 1524 1525 1526 1527 1528 1529 1530 1531 1533 1534 1535 1537 1538 1539 1540 1542 1543 1544 1545 1546 1547 1548 1549 1550
1514 1514 1515 1515 1516 1516 1515 1516 1516 1517 1517 1517 1517 1518 1518 1519 1519 1520 1521 1522 1522 1523 1525 1526 1527 1528 1529 1531 1532 1533 1535 1536 1538 1539 1540 1541 1543 1544 1545 1546 1547 1548 1549
1511 1511 1512 1513 1513 1513 1513 1513 1514 1514 1514 1515 1515 1515 1516 1516 1516 1517 1518 1519 1520 1521 1522 1523 1524 1526 1527 1528 1529 1531 1532 1534 1535 1537 1538 1540 1541 1542 1544 1545 1546 1547 1548
1508 1509 1509 1509 1510 1510 1510 1510 1511 1511 1511 1512 1512 1512 1513 1513 1514 1514 1515 1516 1517 1519 1520 1521 1522 1523 1525 1526 1527 1529 1530 1532 1533 1535 1536 1538 1539 1540 1542 1543 1544 1546 1547
1505 1506 1506 1506 1507 1507 1507 1508 1508 1508 1508 1508 1509 1509 1510 1510 1511 1511 1512 1513 1515 1516 1517 1518 1519 1520 1522 1523 1525 1526 1528 1529 1531 1532 1534 1535 1537 1538 1540 1541 1542 1544 1545
1502 1502 1503 1503 1504 1504 1504 1504 1505 1505 1505 1505 1505 1506 1506 1507 1507 1508 1509 1510 1512 1513 1514 1515 1516 1517 1519 1520 1522 1523 1525 1526 1528 1529 1531 1533 1534 1536 1537 1539 1540 1542 1543
1499 1499 1499 1500 1500 1500 1501 1501 1501 1501 1501 1501 1502 1502 1503 1503 1504 1505 1506 1507 1508 1509 1510 1512 1513 1515 1516 1517 1519 1520 1522 1524 1525 1526 1528 1530 1532 1533 1535 1536 1538 1539 1541
1495 1495 1496 1496 1497 1497 1496 1497 1497 1497 1497 1497 1498 1498 1499 1499 1500 1501 1502 1504 1505 1506 1507 1509 1510 1511 1513 1514 1516 1517 1519 1521 1522 1523 1525 1527 1529 1530 1532 1533 1535 1536 1538
1491 1491 1492 1492 1493 1493 1493 1493 1493 1493 1494 1494 1494 1494 1495 1496 1497 1497 1499 1500 1501 1503 1504 1505 1507 1508 1509 1511 1513 1514 1517 1519 1518 1520 1521 1523 1525 1527 1529 1530 1532 1533 1535
1487 1487 1488 1488 1489 1489 1490 1490 1490 1490 1490 1490 1490 1490 1491 1492 1493 1494 1495 1496 1498 1499 1500 1501 1503 1504 1506 1508 1509 1511 1513 1514 1515 1517 1518 1520 1521 1524 1526 1527 1529 1530 1532
1483 1484 1484 1485 1485 1485 1486 1485 1486 1485 1485 1486 1486 1486 1487 1488 1488 1489 1490 1492 1494 1495 1496 1497 1499 1501 1502 1504 1506 1507 1509 1509 1512 1513 1515 1516 1518 1520 1522 1524 1525 1527 1528
1480 1481 1481 1481 1481 1481 1481 1482 1482 1481 1482 1482 1482 1482 1483 1483 1484 1485 1486 1487 1489 1491 1492 1493 1495 1496 1498 1500 1502 1503 1505 1506 1508 1510 1511 1513 1515 1516 1518 1520 1522 1523 1525
1477 1477 1477 1477 1477 1477 1477 1477 1477 1477 1477 1478 1478 1478 1478 1479 1479 1480 1481 1483 1484 1486 1487 1489 1490 1492 1494 1496 1498 1499 1501 1502 1504 1506 1507 1509 1510 1512 1514 1516 1518 1520 1521